Parker Ford, PA

2:04 PM EDT on September 25, 2016 (GMT -0400)
Pottstown Limerick

Weather History for KPTW - February, 2012

Change the Weather History Date:

Friday, February 10, 2012

  Actual Average (KRDG) Record (KRDG)
Temperature  
Mean Temperature 31 °F 31 °F  
Max Temperature 41 °F 40 °F 61 °F (1960)
Min Temperature 21 °F 22 °F -13 °F (1899)
Degree Days  
Heating Degree Days 34 34  
Month to date heating degree days 346  
Since 1 July heating degree days 3471  
Cooling Degree Days 0 0  
Month to date cooling degree days 0  
Year to date cooling degree days 0  
Moisture  
Dew Point 25 °F    
Average Humidity 75    
Maximum Humidity 96    
Minimum Humidity 47    
Precipitation  
Precipitation 0.00 in 0.09 in 1.50 in (2010)
Month to date precipitation 0.83  
Year to date precipitation 3.88  
Sea Level Pressure  
Sea Level Pressure 30.05 in    
Wind  
Wind Speed 2 mph (WSW)    
Max Wind Speed 8 mph    
Max Gust Speed -    
Visibility 6 miles    
Events Snow    
T = Trace of Precipitation, MM = Missing Value Source: NWS Daily Summary

Daily Weather History Graph

Daily Weather History Graph

Search for Another Location

Airport or City:

Trip Planner

Search our weather history database for the weather conditions in past years. The results will help you decide how hot, cold, wet, or windy it might be!

Date:

Astronomy

Feb. 10, 2012 Rise Set
Actual Time 7:02 AM EST 5:31 PM EST
Civil Twilight 6:34 AM EST 5:59 PM EST
Nautical Twilight 6:01 AM EST 6:31 PM EST
Astronomical Twilight 5:30 AM EST 7:03 PM EST
Moon 9:07 PM EST (2/10) 8:09 AM EST (2/10)
Length of Visible Light 11h 25m
Length of Day
10h 29m
Waning Gibbous, 90% of the Moon is Illuminated
Feb 10
Waning Gibbous
Feb 14
Last Quarter
Feb 21
New
Feb 29
First Quarter
Mar 8
Full

Hourly Weather History & Observations

Time (EST) Temp. Windchill Dew Point Humidity Pressure Visibility Wind Dir Wind Speed Gust Speed Precip Events Conditions
12:54 AM 27.0 °F - 19.9 °F 75% 30.17 in 8.0 mi Calm Calm - N/A   Clear
1:54 AM 27.0 °F - 21.0 °F 78% 30.17 in 8.0 mi Calm Calm - N/A   Clear
2:54 AM 26.1 °F - 21.0 °F 81% 30.16 in 8.0 mi Calm Calm - N/A   Partly Cloudy
3:54 AM 25.0 °F - 19.9 °F 81% 30.15 in 9.0 mi Calm Calm - N/A   Clear
5:54 AM 23.0 °F - 19.9 °F 88% 30.15 in 6.0 mi Calm Calm - N/A   Clear
6:54 AM 21.9 °F - 18.0 °F 85% 30.17 in 6.0 mi Calm Calm - N/A   Mist
7:54 AM 24.1 °F - 19.9 °F 84% 30.17 in 4.0 mi Calm Calm - N/A   Mist
8:54 AM 28.9 °F - 23.0 °F 78% 30.17 in 5.0 mi Calm Calm - N/A   Haze
9:54 AM 34.0 °F 31.0 °F 24.1 °F 67% 30.16 in 9.0 mi SW 3.5 mph - N/A   Clear
10:54 AM 37.0 °F 34.5 °F 21.9 °F 54% 30.14 in 10.0 mi West 3.5 mph - N/A   Unknown
11:54 AM 37.9 °F 34.4 °F 21.9 °F 53% 30.11 in 10.0 mi WNW 4.6 mph - N/A   Clear
12:54 PM 39.9 °F 35.8 °F 21.9 °F 49% 30.07 in 10.0 mi Variable 5.8 mph - N/A   Partly Cloudy
1:54 PM 41.0 °F 36.4 °F 21.0 °F 45% 30.03 in 10.0 mi WSW 6.9 mph - N/A   Partly Cloudy
2:54 PM 41.0 °F 37.1 °F 21.9 °F 47% 30.03 in 10.0 mi SSW 5.8 mph - N/A   Partly Cloudy
3:54 PM 39.9 °F 35.1 °F 21.9 °F 49% 30.03 in 10.0 mi SW 6.9 mph - N/A   Overcast
4:54 PM 39.0 °F 34.8 °F 21.9 °F 50% 30.02 in 10.0 mi WSW 5.8 mph - N/A   Mostly Cloudy
5:54 PM 39.0 °F 34.8 °F 21.9 °F 50% 30.02 in 10.0 mi SW 5.8 mph - N/A   Overcast
6:54 PM 37.9 °F - 23.0 °F 55% 30.00 in 10.0 mi Calm Calm - N/A   Overcast
7:54 PM 37.0 °F 31.0 °F 27.0 °F 67% 30.00 in 10.0 mi WSW 8.1 mph - N/A   Overcast
8:11 PM 35.6 °F 29.2 °F 28.4 °F 75% 30.00 in 7.0 mi WSW 8.1 mph - 0.00 in   Overcast
8:29 PM 35.6 °F 30.7 °F 30.2 °F 81% 30.00 in 4.0 mi West 5.8 mph - 0.00 in Snow Light Snow
8:38 PM 33.8 °F 29.6 °F 30.2 °F 87% 30.00 in 4.0 mi WSW 4.6 mph - 0.00 in   Overcast
8:54 PM 34.0 °F 31.0 °F 30.9 °F 89% 30.00 in 4.0 mi West 3.5 mph - 0.00 in   Overcast
9:54 PM 34.0 °F 31.0 °F 32.0 °F 92% 29.98 in 4.0 mi SW 3.5 mph - N/A   Overcast
10:26 PM 33.8 °F - 32.0 °F 93% 29.96 in 3.0 mi Calm Calm - 0.00 in   Overcast
10:54 PM 34.0 °F - 32.0 °F 92% 29.94 in 3.0 mi Calm Calm - 0.00 in   Overcast
11:20 PM 33.8 °F - 30.2 °F 87% 29.93 in 2.0 mi Calm Calm - 0.00 in Snow Light Snow
11:30 PM 33.8 °F - 30.2 °F 87% 29.93 in 1.5 mi Calm Calm - 0.00 in Snow Light Snow
11:52 PM 33.8 °F - 32.0 °F 93% 29.93 in 1.2 mi Calm Calm - 0.00 in Snow Light Snow
11:53 PM 33.1 °F - 32.0 °F 96% 29.93 in 1.2 mi Calm Calm - 0.00 in Snow Light Snow